Location: ??????????
(44.2167°N, 135.5333°E)
Time: 14:09:54
(UTC+00:00)

BREEZE M DEB (TANK) - Pass Details

Date: 15 June 2025
Orbit: 316 x 13277 km, 49.5° (Epoch: 15 July)

Event Time Altitude Azimuth Distance (km) Brightness Sun altitude
Exits shadow 16:41:44 38° 99° (E) 511 2.7 -18.4°
Drops below altitude 10° 16:43:42 - 70° (ENE) 1,425 5.6 -18.3°
Sets 16:46:01 0° 65° (ENE) 2,617 7.1 -18.1°
